Zurück zum Katalog

STARLINK-5363

AktivKommunikationVLEO
NORAD 55497·PAYLOAD·🇺🇸 United States

Gestartet Feb 2, 2023 von Cape Canaveral Space Force Station

Loading…

Nächste Überflüge (nächste 24 Stunden)

TLE

AktuellSource: CelesTrak SupGP

Epoche: Sep 15, 2026, 03:11 UTC

1 55497C 23015BA  26258.13312500  .00019014  00000+0  68881-3 0  2585
2 55497  43.0043 349.9944 0002086 271.7142 189.0003 15.27562056    19

Verfolge STARLINK-5363 in Echtzeit mit AllMySat

Download on the App Store